Weather History for Del Bajio, Mexico

Change the Weather History Date:

Monday, April 29, 2013

  Actual Average Record
Temperature  
Mean Temperature 72 °F -  
Max Temperature 89 °F 88 °F 95 °F (2005)
Min Temperature 55 °F 54 °F 48 °F (1997)
Cooling Degree Days 7    
Growing Degree Days 22 (Base 50)    
Moisture  
Dew Point 14 °F    
Average Humidity 15    
Maximum Humidity 31    
Minimum Humidity 4    
Precipitation  
Precipitation 0.00 in - - ()
Sea Level Pressure  
Sea Level Pressure 29.91 in    
Wind  
Wind Speed 6 mph ()    
Max Wind Speed 20 mph    
Max Gust Speed -    
Visibility 8.7 miles    
Events      
Averages and records for this station are not official NWS values.
T = Trace of Precipitation, MM = Missing Value Source: Averaged Metar Reports

Daily Weather History Graph

Daily Weather History Graph

Search for Another Location

Airport:

Trip Planner

Search our weather history database for the weather conditions in past years. The results will help you decide how hot, cold, wet, or windy it might be!

Date:

Astronomy

Apr. 29, 2013 Rise Set
Actual Time 7:16 AM CDT 8:10 PM CDT
Civil Twilight 6:53 AM CDT 8:33 PM CDT
Nautical Twilight 6:26 AM CDT 9:00 PM CDT
Astronomical Twilight 5:58 AM CDT 9:28 PM CDT
Moon No Moon Rise 10:51 AM CDT (4/29)
Length of Visible Light 13h 39m
Length of Day
12h 53m
Waning Gibbous, 80% of the Moon is Illuminated
Apr 29
Waning Gibbous
May 2
Last Quarter
May 9
New
May 17
First Quarter
May 24
Full

Hourly Weather History & Observations

Time (CDT) Temp. Dew Point Humidity Pressure Visibility Wind Dir Wind Speed Gust Speed Precip Events Conditions
12:40 AM 66.2 °F 23.0 °F 19% 29.64 in 8.0 mi West 5.8 mph - N/A   Scattered Clouds
2:44 AM 60.8 °F 24.8 °F 25% 30.09 in 8.0 mi West 3.5 mph - N/A   Scattered Clouds
3:43 AM 57.2 °F 24.8 °F 29% 29.72 in 8.0 mi Calm Calm - N/A   Scattered Clouds
4:53 AM 57.2 °F 26.6 °F 31% 30.09 in 7.0 mi Calm Calm - N/A   Scattered Clouds
5:45 AM 57.2 °F 26.6 °F 31% 30.09 in 7.0 mi Calm Calm - N/A   Mostly Cloudy
6:42 AM 57.2 °F 26.6 °F 31% 29.79 in 7.0 mi NNE 3.5 mph - N/A   Mostly Cloudy
7:45 AM 55.4 °F 24.8 °F 31% 30.09 in 7.0 mi NNE 5.8 mph - N/A   Mostly Cloudy
8:41 AM 62.6 °F 24.8 °F 24% 30.12 in 8.0 mi NNE 3.5 mph - N/A   Mostly Cloudy
9:46 AM 71.6 °F 17.6 °F 13% 29.70 in 9.0 mi Calm Calm - N/A   Mostly Cloudy
10:46 AM 75.2 °F 12.2 °F 9% 30.12 in 10.0 mi West 9.2 mph - N/A   Scattered Clouds
11:43 AM 78.8 °F 10.4 °F 7% 30.12 in 10.0 mi West 10.4 mph - N/A   Scattered Clouds
12:44 PM 80.6 °F 6.8 °F 6% 29.66 in 10.0 mi WSW 19.6 mph - N/A   Partly Cloudy
1:42 PM 82.4 °F 6.8 °F 6% 30.06 in 10.0 mi NW 18.4 mph - N/A   Partly Cloudy
3:49 PM 89.6 °F 1.4 °F 4% 29.53 in 10.0 mi SSW 11.5 mph - N/A   Scattered Clouds
4:50 PM 87.8 °F 1.4 °F 4% 29.97 in 10.0 mi West 17.3 mph - N/A   Scattered Clouds
5:42 PM 84.2 °F -0.4 °F 4% 29.97 in 10.0 mi West 19.6 mph - N/A   Mostly Cloudy
6:50 PM 80.6 °F 8.6 °F 6% 29.56 in 10.0 mi WSW 17.3 mph - N/A   Mostly Cloudy
7:50 PM 78.8 °F 1.4 °F 5% 29.97 in 10.0 mi West 12.7 mph - N/A   Mostly Cloudy
8:42 PM 73.4 °F 14.0 °F 10% 30.00 in 8.0 mi West 4.6 mph - N/A   Mostly Cloudy
9:47 PM 69.8 °F 3.2 °F 7% 29.60 in 8.0 mi Calm Calm - N/A   Mostly Cloudy
10:45 PM 66.2 °F 3.2 °F 8% 30.02 in 8.0 mi Calm Calm - N/A   Mostly Cloudy
11:47 PM 66.2 °F 10.4 °F 11% 30.04 in 8.0 mi Calm Calm - N/A   Mostly Cloudy